This is the latest recevied weather packets stored in our database for station/object KC5DAQ-28. If no packets are shown the sender has not sent any weather packets the latest 1 day(s).
| Time | Temp. | Humidity | Pressure | Rain* | Wind** | Luminosity | Snow |
|---|---|---|---|---|---|---|---|
| 1778042164 | 25° C | 87% | 1003.5 hPa | 0 mm | 1.34 m/s, 141° | 0 W/m² | - |
| 1778042103 | 25° C | 87% | 1003.5 hPa | 0 mm | 1.34 m/s, 142° | 0 W/m² | - |
| 1778042045 | 25° C | 87% | 1003.5 hPa | 0 mm | 1.34 m/s, 157° | 0 W/m² | - |
| 1778041983 | 25° C | 87% | 1003.5 hPa | 0 mm | 1.34 m/s, 154° | 0 W/m² | - |
| 1778041923 | 25° C | 87% | 1003.5 hPa | 0 mm | 0.89 m/s, 145° | 0 W/m² | - |
| 1778041862 | 25° C | 87% | 1003.4 hPa | 0 mm | 0.89 m/s, 123° | 0 W/m² | - |
| 1778041806 | 25° C | 87% | 1003.4 hPa | 0 mm | 1.34 m/s, 123° | 0 W/m² | - |
| 1778041744 | 25° C | 87% | 1003.4 hPa | 0 mm | 1.34 m/s, 124° | 0 W/m² | - |
| 1778041683 | 25° C | 87% | 1003.4 hPa | 0 mm | 1.79 m/s, 166° | 0 W/m² | - |
| 1778041624 | 25° C | 87% | 1003.3 hPa | 0 mm | 1.79 m/s, 152° | 0 W/m² | - |
| 1778041563 | 25° C | 87% | 1003.4 hPa | 0 mm | 1.79 m/s, 125° | 0 W/m² | - |
| 1778041503 | 25° C | 87% | 1003.4 hPa | 0 mm | 1.34 m/s, 169° | 0 W/m² | - |
| 1778041442 | 25° C | 87% | 1003.4 hPa | 0 mm | 1.34 m/s, 144° | 0 W/m² | - |
| 1778041382 | 25° C | 87% | 1003.3 hPa | 0 mm | 1.34 m/s, 179° | 0 W/m² | - |
| 1778041322 | 25° C | 86% | 1003.4 hPa | 0 mm | 1.79 m/s, 199° | 0 W/m² | - |
| 1778041263 | 25° C | 86% | 1003.3 hPa | 0 mm | 2.24 m/s, 162° | 0 W/m² | - |
| 1778041202 | 25° C | 86% | 1003.3 hPa | 0 mm | 1.79 m/s, 137° | 0 W/m² | - |
| 1778041145 | 25° C | 86% | 1003.4 hPa | 0 mm | 1.34 m/s, 135° | 0 W/m² | - |
| 1778041081 | 25° C | 86% | 1003.4 hPa | 0 mm | 1.34 m/s, 193° | 0 W/m² | - |
| 1778041022 | 25° C | 86% | 1003.3 hPa | 0 mm | 1.34 m/s, 154° | 0 W/m² | - |
| 1778040963 | 25° C | 86% | 1003.3 hPa | 0 mm | 1.79 m/s, 188° | 0 W/m² | - |
| 1778040906 | 25° C | 86% | 1003.3 hPa | 0 mm | 1.79 m/s, 121° | 0 W/m² | - |
| 1778040842 | 25.56° C | 86% | 1003.3 hPa | 0 mm | 1.34 m/s, 110° | 0 W/m² | - |
| 1778040782 | 25.56° C | 86% | 1003.3 hPa | 0 mm | 0.89 m/s, 151° | 0 W/m² | - |
| 1778040724 | 25.56° C | 86% | 1003.3 hPa | 0 mm | 1.79 m/s, 162° | 0 W/m² | - |
* Rain latest hour (hover to see other rain measurements)
** Current wind speed in m/s (hover to see current wind gust speed)